Flag for U.S.A. Weather past 2 weeks in Overland Park, Kansas, U.S.A.

Now
71 °F

Rain. Fog.


Feels Like: 65 °F
Forecast: 63 / 72 °F
Wind: 6 mph from West

Location: Johnson County Executive Airport

Current Time: Jul 6, 2015 at 7:20:02 PM

Latest Report: Jul 6, 2015 at 6:53 PM


Visibility: 4 mi

Pressure: 29.84 "Hg

Humidity: 96%

Dew point: 70 °F

Location of Overland ParkLocation

Historic Weather in Overland Park — Graph

°F

Overland Park temperature yesterday

Maximum temperature yesterday: 87 °F (at 3:53 PM)
Minimum temperature yesterday: 66 °F (at 5:53 AM)
Average temperature yesterday: 77 °F

Past Weeks' High & Low Weather Summary

 TemperatureHumidityPressure
High95 °F (Jun 25, 3:53 PM)100% (Jun 26, 2:53 AM)30.18 "Hg (Jun 26, 2:53 AM)
Low62 °F (Jul 4, 3:53 AM)37% (Jun 28, 4:53 PM)29.74 "Hg (Jul 1, 8:53 PM)
Average76 °F73%29.92 "Hg
* Reported Jun 21 6:53 PM — Jul 6 6:00 PM, Overland Park, Weather by CustomWeather, © 2015

Note: Actual official high and low records may vary slightly from our data, if they occured in-between our weather recording intervals... More about our weather records

Advertising

Overland Park weather history for previous 24 hours

 ConditionsComfort  
Time TempWeatherWind HumidityBarometerVisibility
6:00 PM
Mon, Jul 6
70 °FStrong thunderstorms. Fog.8 mph97%29.87 "Hg1 mi
4:53 PM83 °FThunderstorms. Sunny.13 mph74%29.79 "Hg10 mi
3:53 PM85 °FPartly sunny.20 mph72%29.77 "Hg10 mi
2:53 PM86 °FScattered clouds.14 mph70%29.80 "Hg10 mi
1:53 PM86 °FScattered clouds.16 mph70%29.84 "Hg10 mi
12:53 PM85 °FPassing clouds.16 mph70%29.86 "Hg10 mi
11:53 AM83 °FPassing clouds.12 mph74%29.88 "Hg10 mi
10:53 AM82 °FSunny.10 mph74%29.89 "Hg10 mi
9:53 AM80 °FSunny.12 mph76%29.89 "Hg10 mi
8:53 AM76 °FSunny.10 mph85%29.89 "Hg10 mi
7:53 AM74 °FSunny.9 mph88%29.88 "Hg10 mi
6:53 AM73 °FClear.9 mph88%29.88 "Hg10 mi
5:53 AM72 °FClear.10 mph91%29.86 "Hg10 mi
4:53 AM72 °FClear.10 mph87%29.86 "Hg10 mi
3:53 AM72 °FClear.12 mph91%29.88 "Hg10 mi
2:53 AM72 °FClear.10 mph87%29.87 "Hg10 mi
1:53 AM73 °FClear.9 mph84%29.89 "Hg10 mi
12:53 AM74 °FClear.9 mph79%29.88 "Hg10 mi
11:53 PM
Sun, Jul 5
76 °FPassing clouds.7 mph74%29.88 "Hg10 mi
10:53 PM77 °FClear.13 mph77%29.86 "Hg10 mi
9:53 PM80 °FClear.17 mph74%29.88 "Hg10 mi
8:53 PM82 °FSunny.12 mph77%29.86 "Hg10 mi
7:53 PM84 °FSunny.13 mph72%29.86 "Hg10 mi
Weather by CustomWeather, © 2015

See weather overviewHow to use our weather pages